Time,TemperatureF,DewpointF,PressureIn,WindDirection,WindDirectionDegrees,WindSpeedMPH,WindSpeedGustMPH,Humidity,HourlyPrecipIn,Conditions,Clouds,dailyrainin,SoftwareType,DateUTC
2013-09-26 00:01:00,45.6,44.1,29.40,North,0,0.0,-999.0,94,0.00,,,-99.99,,2013-09-26 08:01:00,
2013-09-26 00:06:00,45.6,44.1,29.40,North,0,0.0,-999.0,94,0.00,,,-99.99,,2013-09-26 08:06:00,
2013-09-26 00:11:00,45.7,44.3,29.40,North,0,0.0,-999.0,94,0.00,,,-99.99,,2013-09-26 08:11:00,
2013-09-26 00:16:00,45.8,44.3,29.40,North,0,0.0,-999.0,94,0.00,,,-99.99,,2013-09-26 08:16:00,
2013-09-26 00:21:00,45.8,44.3,29.40,North,0,0.0,-999.0,94,0.00,,,-99.99,,2013-09-26 08:21:00,
2013-09-26 00:26:00,45.6,44.2,29.40,North,0,0.0,-999.0,94,0.00,,,-99.99,,2013-09-26 08:26:00,
2013-09-26 00:31:00,45.5,44.1,29.40,North,0,0.0,-999.0,94,0.00,,,-99.99,,2013-09-26 08:31:00,
2013-09-26 00:36:00,45.6,44.2,29.40,North,0,0.0,-999.0,94,0.00,,,-99.99,,2013-09-26 08:36:00,
2013-09-26 00:41:00,46.1,44.8,29.40,North,0,0.0,-999.0,95,0.00,,,-99.99,,2013-09-26 08:41:00,
2013-09-26 00:46:00,45.9,44.4,29.40,North,0,0.0,-999.0,94,0.00,,,-99.99,,2013-09-26 08:46:00,
2013-09-26 00:51:00,45.9,44.4,29.40,North,0,0.0,-999.0,94,0.00,,,-99.99,,2013-09-26 08:51:00,
2013-09-26 00:56:00,45.8,44.4,29.40,North,0,0.0,-999.0,94,0.00,,,-99.99,,2013-09-26 08:56:00,
2013-09-26 01:01:00,45.8,44.4,29.42,North,0,0.0,-999.0,94,0.00,,,-99.99,,2013-09-26 09:01:00,
2013-09-26 01:06:00,45.7,44.3,29.42,North,0,0.0,-999.0,94,0.00,,,-99.99,,2013-09-26 09:06:00,
2013-09-26 01:11:00,45.8,44.4,29.42,North,0,0.0,-999.0,94,0.00,,,-99.99,,2013-09-26 09:11:00,
2013-09-26 01:16:00,45.7,44.4,29.42,North,0,0.0,-999.0,94,0.00,,,-99.99,,2013-09-26 09:16:00,
2013-09-26 01:21:00,45.9,44.5,29.42,North,0,0.0,-999.0,94,0.00,,,-99.99,,2013-09-26 09:21:00,
2013-09-26 01:26:00,45.7,44.4,29.42,North,0,0.0,-999.0,95,0.00,,,-99.99,,2013-09-26 09:26:00,
2013-09-26 01:31:00,46.0,44.8,29.42,North,0,0.0,-999.0,95,0.00,,,-99.99,,2013-09-26 09:31:00,
2013-09-26 01:36:00,46.0,44.7,29.42,North,0,0.0,-999.0,95,0.00,,,-99.99,,2013-09-26 09:36:00,
2013-09-26 01:41:00,46.0,44.7,29.42,North,0,0.0,-999.0,95,0.00,,,-99.99,,2013-09-26 09:41:00,
2013-09-26 01:46:00,46.3,45.0,29.42,North,0,0.0,-999.0,95,0.00,,,-99.99,,2013-09-26 09:46:00,
2013-09-26 01:51:00,46.3,45.0,29.42,North,0,0.0,-999.0,95,0.00,,,-99.99,,2013-09-26 09:51:00,
2013-09-26 01:56:00,46.3,45.1,29.42,North,0,0.0,-999.0,95,0.00,,,-99.99,,2013-09-26 09:56:00,
2013-09-26 02:01:00,46.2,44.9,29.44,North,0,0.0,-999.0,95,0.00,,,-99.99,,2013-09-26 10:01:00,
2013-09-26 02:06:00,46.3,45.1,29.44,North,0,0.0,-999.0,95,0.00,,,-99.99,,2013-09-26 10:06:00,
2013-09-26 02:11:00,46.2,44.9,29.44,North,0,0.0,-999.0,95,0.00,,,-99.99,,2013-09-26 10:11:00,
2013-09-26 02:16:00,46.2,44.9,29.44,North,0,0.0,-999.0,95,0.00,,,-99.99,,2013-09-26 10:16:00,
2013-09-26 02:21:00,46.2,45.0,29.44,North,0,0.0,-999.0,95,0.00,,,-99.99,,2013-09-26 10:21:00,
2013-09-26 02:26:00,46.2,45.0,29.44,North,0,0.0,-999.0,95,0.00,,,-99.99,,2013-09-26 10:26:00,
2013-09-26 02:31:00,46.2,45.0,29.44,North,0,0.0,-999.0,95,0.00,,,-99.99,,2013-09-26 10:31:00,
2013-09-26 02:36:00,46.0,44.8,29.44,North,0,0.0,-999.0,95,0.00,,,-99.99,,2013-09-26 10:36:00,
2013-09-26 02:41:00,45.9,44.7,29.44,North,0,0.0,-999.0,95,0.00,,,-99.99,,2013-09-26 10:41:00,
2013-09-26 02:46:00,46.0,44.8,29.44,North,0,0.0,-999.0,95,0.00,,,-99.99,,2013-09-26 10:46:00,
2013-09-26 02:51:00,46.1,44.9,29.44,North,0,0.0,-999.0,95,0.00,,,-99.99,,2013-09-26 10:51:00,
2013-09-26 02:56:00,46.0,44.9,29.44,North,0,0.0,-999.0,95,0.00,,,-99.99,,2013-09-26 10:56:00,
2013-09-26 03:01:00,46.1,44.9,29.45,North,0,0.0,-999.0,95,0.00,,,-99.99,,2013-09-26 11:01:00,
2013-09-26 03:06:00,46.0,44.8,29.45,North,0,0.0,-999.0,95,0.00,,,-99.99,,2013-09-26 11:06:00,
2013-09-26 03:11:00,46.0,44.8,29.45,North,0,0.0,-999.0,95,0.00,,,-99.99,,2013-09-26 11:11:00,
2013-09-26 03:16:00,46.0,44.8,29.45,North,0,0.0,-999.0,95,0.00,,,-99.99,,2013-09-26 11:16:00,
2013-09-26 03:21:00,46.1,44.9,29.45,North,0,0.0,-999.0,95,0.00,,,-99.99,,2013-09-26 11:21:00,
2013-09-26 03:26:00,45.9,44.7,29.45,North,0,0.0,-999.0,95,0.00,,,-99.99,,2013-09-26 11:26:00,
2013-09-26 03:31:00,45.9,44.7,29.45,North,0,0.0,-999.0,95,0.00,,,-99.99,,2013-09-26 11:31:00,
2013-09-26 03:36:00,45.9,44.7,29.45,North,0,0.0,-999.0,95,0.00,,,-99.99,,2013-09-26 11:36:00,
2013-09-26 03:41:00,46.1,44.9,29.45,North,0,0.0,-999.0,95,0.00,,,-99.99,,2013-09-26 11:41:00,
2013-09-26 03:46:00,46.0,44.8,29.45,North,0,0.0,-999.0,95,0.00,,,-99.99,,2013-09-26 11:46:00,
2013-09-26 03:51:00,46.0,44.7,29.45,North,0,0.0,-999.0,95,0.00,,,-99.99,,2013-09-26 11:51:00,
2013-09-26 03:56:00,45.8,44.5,29.45,North,0,0.0,-999.0,95,0.00,,,-99.99,,2013-09-26 11:56:00,
2013-09-26 04:01:00,46.1,44.8,29.45,North,0,0.0,-999.0,95,0.00,,,-99.99,,2013-09-26 12:01:00,
2013-09-26 04:06:00,45.8,44.5,29.45,North,0,0.0,-999.0,94,0.00,,,-99.99,,2013-09-26 12:06:00,
2013-09-26 04:11:00,46.0,44.6,29.45,North,0,0.0,-999.0,95,0.00,,,-99.99,,2013-09-26 12:11:00,
2013-09-26 04:16:00,46.0,44.7,29.45,North,0,0.0,-999.0,95,0.00,,,-99.99,,2013-09-26 12:16:00,
2013-09-26 04:21:00,46.0,44.8,29.45,North,0,0.0,-999.0,95,0.00,,,-99.99,,2013-09-26 12:21:00,
2013-09-26 04:26:00,46.1,44.7,29.45,North,0,0.0,-999.0,94,0.00,,,-99.99,,2013-09-26 12:26:00,
2013-09-26 04:31:00,46.2,44.7,29.45,North,0,0.0,-999.0,94,0.00,,,-99.99,,2013-09-26 12:31:00,
2013-09-26 04:36:00,46.0,44.6,29.45,North,0,0.0,-999.0,94,0.00,,,-99.99,,2013-09-26 12:36:00,
2013-09-26 04:41:00,45.9,44.5,29.45,North,0,0.0,-999.0,94,0.00,,,-99.99,,2013-09-26 12:41:00,
2013-09-26 04:46:00,45.7,44.3,29.45,North,0,0.0,-999.0,94,0.00,,,-99.99,,2013-09-26 12:46:00,
2013-09-26 04:51:00,45.7,44.2,29.45,North,0,0.0,-999.0,94,0.00,,,-99.99,,2013-09-26 12:51:00,
2013-09-26 04:56:00,45.8,44.5,29.45,North,0,0.0,-999.0,94,0.00,,,-99.99,,2013-09-26 12:56:00,
2013-09-26 05:01:00,46.0,44.5,29.48,North,0,0.0,-999.0,94,0.00,,,-99.99,,2013-09-26 13:01:00,
2013-09-26 05:06:00,46.1,44.5,29.48,North,0,0.0,-999.0,94,0.00,,,-99.99,,2013-09-26 13:06:00,
2013-09-26 05:11:00,46.2,44.5,29.48,North,0,0.0,-999.0,93,0.00,,,-99.99,,2013-09-26 13:11:00,
2013-09-26 05:16:00,46.3,44.6,29.48,North,0,0.0,-999.0,93,0.00,,,-99.99,,2013-09-26 13:16:00,
2013-09-26 05:21:00,46.3,44.5,29.48,North,0,0.0,-999.0,93,0.00,,,-99.99,,2013-09-26 13:21:00,
2013-09-26 05:26:00,46.5,44.5,29.48,North,0,0.0,-999.0,92,0.00,,,-99.99,,2013-09-26 13:26:00,
2013-09-26 05:31:00,46.6,44.5,29.48,North,0,0.0,-999.0,92,0.00,,,-99.99,,2013-09-26 13:31:00,
2013-09-26 05:36:00,46.5,44.5,29.48,North,0,0.0,-999.0,92,0.00,,,-99.99,,2013-09-26 13:36:00,
2013-09-26 05:41:00,46.3,44.2,29.48,North,0,0.0,-999.0,92,0.00,,,-99.99,,2013-09-26 13:41:00,
2013-09-26 05:46:00,46.5,44.4,29.48,North,0,0.0,-999.0,92,0.00,,,-99.99,,2013-09-26 13:46:00,
2013-09-26 05:51:00,46.6,44.5,29.48,North,0,0.0,-999.0,92,0.00,,,-99.99,,2013-09-26 13:51:00,
2013-09-26 05:56:00,46.9,44.7,29.48,North,0,0.0,-999.0,91,0.00,,,-99.99,,2013-09-26 13:56:00,
2013-09-26 06:01:00,46.8,44.4,29.49,North,0,0.0,-999.0,91,0.00,,,-99.99,,2013-09-26 14:01:00,
2013-09-26 06:06:00,47.1,44.6,29.49,North,0,0.0,-999.0,90,0.00,,,-99.99,,2013-09-26 14:06:00,
2013-09-26 06:11:00,47.1,44.4,29.49,North,0,0.0,-999.0,90,0.00,,,-99.99,,2013-09-26 14:11:00,
2013-09-26 06:16:00,47.1,44.3,29.49,North,0,0.0,-999.0,90,0.00,,,-99.99,,2013-09-26 14:16:00,
2013-09-26 06:21:00,47.0,44.3,29.49,North,0,0.0,-999.0,90,0.00,,,-99.99,,2013-09-26 14:21:00,
2013-09-26 06:26:00,46.7,44.0,29.49,North,0,0.0,-999.0,90,0.00,,,-99.99,,2013-09-26 14:26:00,
2013-09-26 06:31:00,46.8,44.2,29.49,North,0,0.0,-999.0,90,0.00,,,-99.99,,2013-09-26 14:31:00,
2013-09-26 06:36:00,46.7,44.1,29.49,North,0,0.0,-999.0,90,0.00,,,-99.99,,2013-09-26 14:36:00,
2013-09-26 06:41:00,46.8,44.1,29.49,North,0,0.0,-999.0,90,0.00,,,-99.99,,2013-09-26 14:41:00,
2013-09-26 06:46:00,46.8,44.1,29.49,North,0,0.0,-999.0,90,0.00,,,-99.99,,2013-09-26 14:46:00,
2013-09-26 06:51:00,47.0,44.1,29.49,North,0,0.0,-999.0,89,0.00,,,-99.99,,2013-09-26 14:51:00,
2013-09-26 06:56:00,47.1,44.2,29.49,North,0,0.0,-999.0,89,0.00,,,-99.99,,2013-09-26 14:56:00,
2013-09-26 07:01:00,47.2,44.2,29.51,North,0,0.0,-999.0,89,0.00,,,-99.99,,2013-09-26 15:01:00,
2013-09-26 07:06:00,46.8,43.8,29.51,North,0,0.0,-999.0,89,0.00,,,-99.99,,2013-09-26 15:06:00,
2013-09-26 07:11:00,46.8,44.1,29.51,North,0,0.0,-999.0,90,0.00,,,-99.99,,2013-09-26 15:11:00,
2013-09-26 07:16:00,46.7,43.9,29.51,North,0,0.0,-999.0,90,0.00,,,-99.99,,2013-09-26 15:16:00,
2013-09-26 07:21:00,46.5,43.7,29.51,North,0,0.0,-999.0,89,0.00,,,-99.99,,2013-09-26 15:21:00,
2013-09-26 07:26:00,46.7,43.8,29.51,North,0,0.0,-999.0,89,0.00,,,-99.99,,2013-09-26 15:26:00,
2013-09-26 07:31:00,46.8,44.0,29.51,North,0,0.0,-999.0,89,0.00,,,-99.99,,2013-09-26 15:31:00,
2013-09-26 07:36:00,47.1,44.2,29.51,North,0,0.0,-999.0,89,0.00,,,-99.99,,2013-09-26 15:36:00,
2013-09-26 07:41:00,47.1,44.1,29.51,North,0,0.0,-999.0,89,0.00,,,-99.99,,2013-09-26 15:41:00,
2013-09-26 07:46:00,47.2,44.2,29.51,North,0,0.0,-999.0,89,0.00,,,-99.99,,2013-09-26 15:46:00,
2013-09-26 07:51:00,47.4,44.3,29.51,North,0,0.0,-999.0,89,0.00,,,-99.99,,2013-09-26 15:51:00,
2013-09-26 07:56:00,47.4,44.4,29.51,North,0,0.0,-999.0,89,0.00,,,-99.99,,2013-09-26 15:56:00,
2013-09-26 08:01:00,47.8,44.6,29.53,North,0,0.0,-999.0,88,0.00,,,-99.99,,2013-09-26 16:01:00,
2013-09-26 08:06:00,48.1,44.4,29.53,North,0,0.0,-999.0,87,0.00,,,-99.99,,2013-09-26 16:06:00,
2013-09-26 08:11:00,48.2,44.3,29.53,North,0,0.0,-999.0,86,0.00,,,-99.99,,2013-09-26 16:11:00,
2013-09-26 08:16:00,48.1,44.2,29.53,North,0,0.0,-999.0,86,0.00,,,-99.99,,2013-09-26 16:16:00,
2013-09-26 08:21:00,47.9,44.0,29.53,North,0,0.0,-999.0,86,0.00,,,-99.99,,2013-09-26 16:21:00,
2013-09-26 08:26:00,47.4,43.8,29.53,North,0,0.0,-999.0,87,0.00,,,-99.99,,2013-09-26 16:26:00,
2013-09-26 08:31:00,47.6,43.9,29.53,North,0,0.0,-999.0,86,0.00,,,-99.99,,2013-09-26 16:31:00,
2013-09-26 08:36:00,47.1,43.6,29.53,North,0,0.0,-999.0,87,0.00,,,-99.99,,2013-09-26 16:36:00,
2013-09-26 08:41:00,47.1,43.7,29.53,North,0,0.0,-999.0,87,0.00,,,-99.99,,2013-09-26 16:41:00,
2013-09-26 08:46:00,46.8,43.6,29.53,North,0,0.0,-999.0,88,0.00,,,-99.99,,2013-09-26 16:46:00,
2013-09-26 08:51:00,47.0,43.5,29.53,North,0,0.0,-999.0,87,0.00,,,-99.99,,2013-09-26 16:51:00,
2013-09-26 08:56:00,47.1,43.5,29.53,North,0,0.0,-999.0,87,0.00,,,-99.99,,2013-09-26 16:56:00,
2013-09-26 09:01:00,47.3,43.8,29.56,North,0,0.0,-999.0,87,0.00,,,-99.99,,2013-09-26 17:01:00,
2013-09-26 09:06:00,47.2,43.6,29.56,North,0,0.0,-999.0,87,0.00,,,-99.99,,2013-09-26 17:06:00,
2013-09-26 09:11:00,47.3,43.8,29.56,North,0,0.0,-999.0,87,0.00,,,-99.99,,2013-09-26 17:11:00,
2013-09-26 09:16:00,47.3,43.8,29.56,North,0,0.0,-999.0,87,0.00,,,-99.99,,2013-09-26 17:16:00,
2013-09-26 09:21:00,47.7,44.2,29.56,North,0,0.0,-999.0,87,0.00,,,-99.99,,2013-09-26 17:21:00,
2013-09-26 09:26:00,48.5,44.4,29.56,North,0,0.0,-999.0,85,0.00,,,-99.99,,2013-09-26 17:26:00,
2013-09-26 09:31:00,49.4,44.5,29.56,North,0,0.0,-999.0,82,0.00,,,-99.99,,2013-09-26 17:31:00,
2013-09-26 09:36:00,50.2,44.7,29.56,North,0,0.0,-999.0,81,0.00,,,-99.99,,2013-09-26 17:36:00,
2013-09-26 09:41:00,49.9,44.3,29.56,North,0,0.0,-999.0,80,0.00,,,-99.99,,2013-09-26 17:41:00,
2013-09-26 09:46:00,50.0,44.0,29.56,North,0,0.0,-999.0,79,0.00,,,-99.99,,2013-09-26 17:46:00,
2013-09-26 09:51:00,51.4,45.1,29.56,North,0,0.0,-999.0,78,0.00,,,-99.99,,2013-09-26 17:51:00,
2013-09-26 09:56:00,51.7,44.8,29.56,North,0,0.0,-999.0,76,0.00,,,-99.99,,2013-09-26 17:56:00,
2013-09-26 10:01:00,52.3,45.0,29.56,North,0,0.0,-999.0,76,0.00,,,-99.99,,2013-09-26 18:01:00,
2013-09-26 10:06:00,51.9,44.5,29.56,North,0,0.0,-999.0,75,0.00,,,-99.99,,2013-09-26 18:06:00,
2013-09-26 10:11:00,51.9,44.1,29.56,North,0,0.0,-999.0,74,0.00,,,-99.99,,2013-09-26 18:11:00,
2013-09-26 10:16:00,52.2,45.1,29.56,North,0,0.0,-999.0,76,0.00,,,-99.99,,2013-09-26 18:16:00,
2013-09-26 10:21:00,52.2,44.8,29.56,North,0,0.0,-999.0,75,0.00,,,-99.99,,2013-09-26 18:21:00,
2013-09-26 10:26:00,52.5,45.2,29.56,North,0,0.0,-999.0,76,0.00,,,-99.99,,2013-09-26 18:26:00,
2013-09-26 10:31:00,51.5,44.6,29.56,North,0,0.0,-999.0,77,0.00,,,-99.99,,2013-09-26 18:31:00,
2013-09-26 10:36:00,50.4,44.3,29.56,North,0,0.0,-999.0,79,0.00,,,-99.99,,2013-09-26 18:36:00,
2013-09-26 10:41:00,49.7,44.1,29.56,North,0,0.0,-999.0,80,0.00,,,-99.99,,2013-09-26 18:41:00,
2013-09-26 10:46:00,49.5,44.2,29.56,North,0,0.0,-999.0,82,0.00,,,-99.99,,2013-09-26 18:46:00,
2013-09-26 10:51:00,49.7,44.1,29.56,North,0,0.0,-999.0,80,0.00,,,-99.99,,2013-09-26 18:51:00,
2013-09-26 10:56:00,50.2,44.1,29.56,North,0,0.0,-999.0,79,0.00,,,-99.99,,2013-09-26 18:56:00,
2013-09-26 11:01:00,50.7,45.0,29.56,North,0,0.0,-999.0,80,0.00,,,-99.99,,2013-09-26 19:01:00,
2013-09-26 11:06:00,51.4,45.4,29.56,North,0,0.0,-999.0,79,0.00,,,-99.99,,2013-09-26 19:06:00,
2013-09-26 11:11:00,51.7,44.0,29.56,North,0,0.0,-999.0,74,0.00,,,-99.99,,2013-09-26 19:11:00,
2013-09-26 11:16:00,51.8,44.7,29.56,North,0,0.0,-999.0,76,0.00,,,-99.99,,2013-09-26 19:16:00,
2013-09-26 11:21:00,51.5,44.0,29.56,North,0,0.0,-999.0,75,0.00,,,-99.99,,2013-09-26 19:21:00,
2013-09-26 11:26:00,51.6,44.0,29.56,North,0,0.0,-999.0,75,0.00,,,-99.99,,2013-09-26 19:26:00,
2013-09-26 11:31:00,51.7,44.2,29.56,North,0,0.0,-999.0,75,0.00,,,-99.99,,2013-09-26 19:31:00,
2013-09-26 11:36:00,51.5,44.3,29.56,North,0,0.0,-999.0,76,0.00,,,-99.99,,2013-09-26 19:36:00,
2013-09-26 11:41:00,52.0,44.5,29.56,North,0,0.0,-999.0,75,0.00,,,-99.99,,2013-09-26 19:41:00,
2013-09-26 11:46:00,52.1,44.0,29.56,North,0,0.0,-999.0,73,0.00,,,-99.99,,2013-09-26 19:46:00,
2013-09-26 11:51:00,53.2,44.7,29.56,North,0,0.0,-999.0,72,0.00,,,-99.99,,2013-09-26 19:51:00,
2013-09-26 11:56:00,54.2,44.6,29.56,North,0,0.0,-999.0,69,0.00,,,-99.99,,2013-09-26 19:56:00,
2013-09-26 12:01:00,54.9,43.4,29.56,North,0,0.0,-999.0,65,0.00,,,-99.99,,2013-09-26 20:01:00,
2013-09-26 12:06:00,55.1,43.9,29.56,North,0,0.0,-999.0,65,0.00,,,-99.99,,2013-09-26 20:06:00,
2013-09-26 12:11:00,55.7,44.2,29.56,North,0,0.0,-999.0,65,0.00,,,-99.99,,2013-09-26 20:11:00,
2013-09-26 12:16:00,56.4,44.1,29.56,North,0,0.0,-999.0,63,0.00,,,-99.99,,2013-09-26 20:16:00,
2013-09-26 12:21:00,56.6,44.1,29.56,North,0,0.0,-999.0,62,0.00,,,-99.99,,2013-09-26 20:21:00,
2013-09-26 12:26:00,56.5,43.5,29.56,North,0,0.0,-999.0,61,0.00,,,-99.99,,2013-09-26 20:26:00,
2013-09-26 12:31:00,56.6,43.5,29.56,North,0,0.0,-999.0,61,0.00,,,-99.99,,2013-09-26 20:31:00,
2013-09-26 12:36:00,56.7,44.4,29.56,North,0,0.0,-999.0,63,0.00,,,-99.99,,2013-09-26 20:36:00,
2013-09-26 12:41:00,54.8,44.2,29.56,North,0,0.0,-999.0,67,0.00,,,-99.99,,2013-09-26 20:41:00,
2013-09-26 12:46:00,54.1,43.7,29.56,North,0,0.0,-999.0,67,0.00,,,-99.99,,2013-09-26 20:46:00,
2013-09-26 12:51:00,54.5,43.5,29.56,North,0,0.0,-999.0,66,0.00,,,-99.99,,2013-09-26 20:51:00,
2013-09-26 12:56:00,53.9,43.8,29.56,North,0,0.0,-999.0,68,0.00,,,-99.99,,2013-09-26 20:56:00,
2013-09-26 13:01:00,52.0,43.6,29.55,North,0,0.0,-999.0,72,0.00,,,-99.99,,2013-09-26 21:01:00,
2013-09-26 13:06:00,52.5,44.3,29.55,North,0,0.0,-999.0,73,0.00,,,-99.99,,2013-09-26 21:06:00,
2013-09-26 13:11:00,54.0,44.6,29.55,North,0,0.0,-999.0,70,0.00,,,-99.99,,2013-09-26 21:11:00,
2013-09-26 13:16:00,55.5,43.5,29.55,North,0,0.0,-999.0,64,0.00,,,-99.99,,2013-09-26 21:16:00,
2013-09-26 13:21:00,53.2,43.7,29.55,North,0,0.0,-999.0,69,0.00,,,-99.99,,2013-09-26 21:21:00,
2013-09-26 13:26:00,53.5,44.1,29.55,North,0,0.0,-999.0,70,0.00,,,-99.99,,2013-09-26 21:26:00,
2013-09-26 13:31:00,53.9,43.9,29.55,North,0,0.0,-999.0,68,0.00,,,-99.99,,2013-09-26 21:31:00,
2013-09-26 13:36:00,53.4,44.1,29.55,North,0,0.0,-999.0,70,0.00,,,-99.99,,2013-09-26 21:36:00,
2013-09-26 13:41:00,53.9,44.3,29.55,North,0,0.0,-999.0,69,0.00,,,-99.99,,2013-09-26 21:41:00,
2013-09-26 13:46:00,52.8,44.1,29.55,North,0,0.0,-999.0,72,0.00,,,-99.99,,2013-09-26 21:46:00,
2013-09-26 13:51:00,52.3,44.3,29.55,North,0,0.0,-999.0,73,0.00,,,-99.99,,2013-09-26 21:51:00,
2013-09-26 13:56:00,52.0,44.0,29.55,North,0,0.0,-999.0,73,0.00,,,-99.99,,2013-09-26 21:56:00,
2013-09-26 14:01:00,51.2,43.2,29.53,North,0,0.0,-999.0,73,0.00,,,-99.99,,2013-09-26 22:01:00,
2013-09-26 14:06:00,51.5,43.2,29.53,North,0,0.0,-999.0,72,0.00,,,-99.99,,2013-09-26 22:06:00,
2013-09-26 14:11:00,51.5,43.2,29.53,North,0,0.0,-999.0,73,0.00,,,-99.99,,2013-09-26 22:11:00,
2013-09-26 14:16:00,51.2,43.4,29.53,North,0,0.0,-999.0,74,0.00,,,-99.99,,2013-09-26 22:16:00,
2013-09-26 14:21:00,50.9,43.4,29.53,North,0,0.0,-999.0,75,0.00,,,-99.99,,2013-09-26 22:21:00,
2013-09-26 14:26:00,50.4,43.3,29.53,North,0,0.0,-999.0,76,0.00,,,-99.99,,2013-09-26 22:26:00,
2013-09-26 14:32:00,50.7,43.9,29.53,North,0,0.0,-999.0,77,0.00,,,-99.99,,2013-09-26 22:32:00,
2013-09-26 14:37:00,50.3,43.8,29.53,North,0,0.0,-999.0,78,0.00,,,-99.99,,2013-09-26 22:37:00,
2013-09-26 14:42:00,50.4,44.2,29.53,North,0,0.0,-999.0,79,0.00,,,-99.99,,2013-09-26 22:42:00,
2013-09-26 14:47:00,50.4,44.2,29.53,North,0,0.0,-999.0,78,0.00,,,-99.99,,2013-09-26 22:47:00,
2013-09-26 14:52:00,50.4,43.7,29.53,North,0,0.0,-999.0,77,0.00,,,-99.99,,2013-09-26 22:52:00,
2013-09-26 14:57:00,50.4,44.2,29.53,North,0,0.0,-999.0,79,0.00,,,-99.99,,2013-09-26 22:57:00,
2013-09-26 15:02:00,50.3,44.5,29.50,North,0,0.0,-999.0,80,0.00,,,-99.99,,2013-09-26 23:02:00,
2013-09-26 15:07:00,50.3,44.5,29.50,North,0,0.0,-999.0,80,0.00,,,-99.99,,2013-09-26 23:07:00,
2013-09-26 15:12:00,50.2,44.8,29.50,North,0,0.0,-999.0,81,0.00,,,-99.99,,2013-09-26 23:12:00,
2013-09-26 15:17:00,50.3,44.8,29.50,North,0,0.0,-999.0,81,0.00,,,-99.99,,2013-09-26 23:17:00,
2013-09-26 15:22:00,50.6,45.1,29.50,North,0,0.0,-999.0,81,0.00,,,-99.99,,2013-09-26 23:22:00,
2013-09-26 15:27:00,50.8,45.0,29.50,North,0,0.0,-999.0,80,0.00,,,-99.99,,2013-09-26 23:27:00,
2013-09-26 15:32:00,50.8,45.2,29.50,North,0,0.0,-999.0,80,0.00,,,-99.99,,2013-09-26 23:32:00,
2013-09-26 15:37:00,50.5,45.1,29.50,North,0,0.0,-999.0,81,0.00,,,-99.99,,2013-09-26 23:37:00,
2013-09-26 15:42:00,50.8,45.7,29.50,North,0,0.0,-999.0,82,0.00,,,-99.99,,2013-09-26 23:42:00,
2013-09-26 15:47:00,51.0,45.0,29.50,North,0,0.0,-999.0,79,0.00,,,-99.99,,2013-09-26 23:47:00,
2013-09-26 15:52:00,51.1,45.2,29.50,North,0,0.0,-999.0,80,0.00,,,-99.99,,2013-09-26 23:52:00,
2013-09-26 15:57:00,50.9,45.3,29.50,North,0,0.0,-999.0,80,0.00,,,-99.99,,2013-09-26 23:57:00,
2013-09-26 16:02:00,51.1,45.6,29.46,North,0,0.0,-999.0,81,0.00,,,-99.99,,2013-09-27 00:02:00,
2013-09-26 16:07:00,51.0,45.8,29.46,North,0,0.0,-999.0,82,0.00,,,-99.99,,2013-09-27 00:07:00,
2013-09-26 16:13:00,50.8,45.7,29.46,North,0,0.0,-999.0,82,0.00,,,-99.99,,2013-09-27 00:13:00,
2013-09-26 16:18:00,50.9,45.8,29.46,North,0,0.0,-999.0,82,0.00,,,-99.99,,2013-09-27 00:18:00,
2013-09-26 16:23:00,50.8,45.7,29.46,North,0,0.0,-999.0,82,0.00,,,-99.99,,2013-09-27 00:23:00,
2013-09-26 16:28:00,50.9,45.9,29.46,North,0,0.0,-999.0,83,0.00,,,-99.99,,2013-09-27 00:28:00,
2013-09-26 16:33:00,51.0,46.3,29.46,North,0,0.0,-999.0,83,0.00,,,-99.99,,2013-09-27 00:33:00,
2013-09-26 16:38:00,51.1,46.1,29.46,North,0,0.0,-999.0,83,0.00,,,-99.99,,2013-09-27 00:38:00,
2013-09-26 16:43:00,50.9,45.8,29.46,North,0,0.0,-999.0,82,0.00,,,-99.99,,2013-09-27 00:43:00,
2013-09-26 16:48:00,50.8,45.1,29.46,North,0,0.0,-999.0,80,0.00,,,-99.99,,2013-09-27 00:48:00,
2013-09-26 16:53:00,51.0,45.2,29.46,North,0,0.0,-999.0,80,0.00,,,-99.99,,2013-09-27 00:53:00,
2013-09-26 16:58:00,51.1,45.5,29.46,North,0,0.0,-999.0,81,0.00,,,-99.99,,2013-09-27 00:58:00,
2013-09-26 17:03:00,51.0,44.9,29.40,North,0,0.0,-999.0,79,0.00,,,-99.99,,2013-09-27 01:03:00,
2013-09-26 17:08:00,51.5,44.6,29.40,North,0,0.0,-999.0,77,0.00,,,-99.99,,2013-09-27 01:08:00,
2013-09-26 17:13:00,51.6,43.9,29.40,North,0,0.0,-999.0,74,0.00,,,-99.99,,2013-09-27 01:13:00,
2013-09-26 17:18:00,51.4,44.1,29.40,North,0,0.0,-999.0,76,0.00,,,-99.99,,2013-09-27 01:18:00,
2013-09-26 17:23:00,51.3,44.4,29.40,North,0,0.0,-999.0,77,0.00,,,-99.99,,2013-09-27 01:23:00,
2013-09-26 17:28:00,51.6,44.5,29.40,North,0,0.0,-999.0,76,0.00,,,-99.99,,2013-09-27 01:28:00,
2013-09-26 17:33:00,51.3,44.0,29.40,North,0,0.0,-999.0,75,0.00,,,-99.99,,2013-09-27 01:33:00,
2013-09-26 17:38:00,51.2,43.7,29.40,North,0,0.0,-999.0,75,0.00,,,-99.99,,2013-09-27 01:38:00,
2013-09-26 17:43:00,51.0,42.9,29.40,North,0,0.0,-999.0,73,0.00,,,-99.99,,2013-09-27 01:43:00,
2013-09-26 17:48:00,50.7,41.5,29.40,North,0,0.0,-999.0,70,0.00,,,-99.99,,2013-09-27 01:48:00,
2013-09-26 17:53:00,50.4,40.7,29.40,North,0,0.0,-999.0,69,0.00,,,-99.99,,2013-09-27 01:53:00,
2013-09-26 17:58:00,50.3,40.7,29.40,North,0,0.0,-999.0,69,0.00,,,-99.99,,2013-09-27 01:58:00,
2013-09-26 18:03:00,50.1,41.5,29.36,North,0,0.0,-999.0,72,0.00,,,-99.99,,2013-09-27 02:03:00,
2013-09-26 18:08:00,49.8,39.8,29.36,North,0,0.0,-999.0,68,0.00,,,-99.99,,2013-09-27 02:08:00,
2013-09-26 18:13:00,49.7,39.9,29.36,North,0,0.0,-999.0,68,0.00,,,-99.99,,2013-09-27 02:13:00,
2013-09-26 18:18:00,49.4,39.9,29.36,North,0,0.0,-999.0,69,0.00,,,-99.99,,2013-09-27 02:18:00,
2013-09-26 18:23:00,49.3,40.1,29.36,North,0,0.0,-999.0,70,0.00,,,-99.99,,2013-09-27 02:23:00,
2013-09-26 18:28:00,48.9,40.9,29.36,North,0,0.0,-999.0,73,0.00,,,-99.99,,2013-09-27 02:28:00,
2013-09-26 18:33:00,48.6,41.0,29.36,North,0,0.0,-999.0,74,0.00,,,-99.99,,2013-09-27 02:33:00,
2013-09-26 18:38:00,48.7,41.4,29.36,North,0,0.0,-999.0,75,0.00,,,-99.99,,2013-09-27 02:38:00,
2013-09-26 18:43:00,48.4,40.0,29.36,North,0,0.0,-999.0,72,0.00,,,-99.99,,2013-09-27 02:43:00,
2013-09-26 18:48:00,48.6,40.8,29.36,North,0,0.0,-999.0,74,0.00,,,-99.99,,2013-09-27 02:48:00,
2013-09-26 18:53:00,48.1,40.7,29.36,North,0,0.0,-999.0,75,0.00,,,-99.99,,2013-09-27 02:53:00,
2013-09-26 18:58:00,47.7,41.1,29.36,North,0,0.0,-999.0,77,0.00,,,-99.99,,2013-09-27 02:58:00,
2013-09-26 19:03:00,47.6,41.0,29.34,North,0,0.0,-999.0,77,0.00,,,-99.99,,2013-09-27 03:03:00,
2013-09-26 19:08:00,47.1,40.7,29.34,North,0,0.0,-999.0,78,0.00,,,-99.99,,2013-09-27 03:08:00,
2013-09-26 19:13:00,46.7,40.7,29.34,North,0,0.0,-999.0,79,0.00,,,-99.99,,2013-09-27 03:13:00,
2013-09-26 19:18:00,46.3,41.3,29.34,North,0,0.0,-999.0,82,0.00,,,-99.99,,2013-09-27 03:18:00,
2013-09-26 19:23:00,45.5,40.9,29.34,North,0,0.0,-999.0,83,0.00,,,-99.99,,2013-09-27 03:23:00,
2013-09-26 19:28:00,45.5,41.3,29.34,North,0,0.0,-999.0,84,0.00,,,-99.99,,2013-09-27 03:28:00,
2013-09-26 19:33:00,45.2,41.0,29.34,North,0,0.0,-999.0,85,0.00,,,-99.99,,2013-09-27 03:33:00,
2013-09-26 19:38:00,45.2,41.0,29.34,North,0,0.0,-999.0,85,0.00,,,-99.99,,2013-09-27 03:38:00,
2013-09-26 19:43:00,45.1,41.1,29.34,North,0,0.0,-999.0,85,0.00,,,-99.99,,2013-09-27 03:43:00,
2013-09-26 19:48:00,45.2,40.6,29.34,North,0,0.0,-999.0,83,0.00,,,-99.99,,2013-09-27 03:48:00,
2013-09-26 19:53:00,44.9,39.8,29.34,North,0,0.0,-999.0,81,0.00,,,-99.99,,2013-09-27 03:53:00,
2013-09-26 19:58:00,45.2,40.2,29.34,North,0,0.0,-999.0,82,0.00,,,-99.99,,2013-09-27 03:58:00,
2013-09-26 20:01:00,45.2,40.3,29.27,North,0,0.0,-999.0,82,0.00,,,-99.99,,2013-09-27 04:01:00,
2013-09-26 20:02:00,45.2,40.1,29.27,North,0,0.0,-999.0,82,0.00,,,-99.99,,2013-09-27 04:02:00,
2013-09-26 20:04:00,45.1,40.0,29.27,North,0,0.0,-999.0,82,0.00,,,-99.99,,2013-09-27 04:04:00,
2013-09-26 20:05:00,44.9,39.7,29.27,North,0,0.0,-999.0,81,0.00,,,-99.99,,2013-09-27 04:05:00,
2013-09-26 20:08:00,44.8,39.6,29.27,North,0,0.0,-999.0,81,0.00,,,-99.99,,2013-09-27 04:08:00,
2013-09-26 20:13:00,44.9,40.4,29.27,North,0,0.0,-999.0,83,0.00,,,-99.99,,2013-09-27 04:13:00,
2013-09-26 20:18:00,44.9,40.2,29.27,North,0,0.0,-999.0,83,0.00,,,-99.99,,2013-09-27 04:18:00,
2013-09-26 20:23:00,44.7,40.5,29.27,North,0,0.0,-999.0,85,0.00,,,-99.99,,2013-09-27 04:23:00,
2013-09-26 20:28:00,44.7,40.8,29.27,North,0,0.0,-999.0,85,0.00,,,-99.99,,2013-09-27 04:28:00,
2013-09-26 20:33:00,44.4,40.7,29.27,North,0,0.0,-999.0,86,0.00,,,-99.99,,2013-09-27 04:33:00,
2013-09-26 20:38:00,44.3,40.8,29.27,North,0,0.0,-999.0,87,0.00,,,-99.99,,2013-09-27 04:38:00,
2013-09-26 20:43:00,44.4,41.0,29.27,North,0,0.0,-999.0,87,0.00,,,-99.99,,2013-09-27 04:43:00,
2013-09-26 20:48:00,44.2,41.2,29.27,North,0,0.0,-999.0,89,0.00,,,-99.99,,2013-09-27 04:48:00,
2013-09-26 20:53:00,44.2,41.5,29.27,North,0,0.0,-999.0,90,0.00,,,-99.99,,2013-09-27 04:53:00,
2013-09-26 20:58:00,44.0,41.5,29.27,North,0,0.0,-999.0,90,0.00,,,-99.99,,2013-09-27 04:58:00,
2013-09-26 21:03:00,44.1,41.8,29.18,North,0,0.0,-999.0,91,0.00,,,-99.99,,2013-09-27 05:03:00,
2013-09-26 21:08:00,44.0,41.9,29.18,North,0,0.0,-999.0,92,0.00,,,-99.99,,2013-09-27 05:08:00,
2013-09-26 21:13:00,44.0,42.0,29.18,North,0,0.0,-999.0,92,0.00,,,-99.99,,2013-09-27 05:13:00,
2013-09-26 21:18:00,44.0,42.2,29.18,North,0,0.0,-999.0,93,0.00,,,-99.99,,2013-09-27 05:18:00,
2013-09-26 21:23:00,44.3,42.6,29.18,North,0,0.0,-999.0,93,0.00,,,-99.99,,2013-09-27 05:23:00,
2013-09-26 21:28:00,44.1,42.5,29.18,North,0,0.0,-999.0,93,0.00,,,-99.99,,2013-09-27 05:28:00,
2013-09-26 21:33:00,44.3,42.8,29.18,North,0,0.0,-999.0,94,0.00,,,-99.99,,2013-09-27 05:33:00,
2013-09-26 21:38:00,44.5,43.0,29.18,North,0,0.0,-999.0,94,0.00,,,-99.99,,2013-09-27 05:38:00,
2013-09-26 21:43:00,44.5,43.1,29.18,North,0,0.0,-999.0,94,0.00,,,-99.99,,2013-09-27 05:43:00,
2013-09-26 21:48:00,44.6,43.3,29.18,North,0,0.0,-999.0,95,0.00,,,-99.99,,2013-09-27 05:48:00,
2013-09-26 21:53:00,44.8,43.5,29.18,North,0,0.0,-999.0,95,0.00,,,-99.99,,2013-09-27 05:53:00,
2013-09-26 21:58:00,45.0,43.8,29.18,North,0,0.0,-999.0,95,0.00,,,-99.99,,2013-09-27 05:58:00,
2013-09-26 22:03:00,45.2,43.9,29.08,North,0,0.0,-999.0,95,0.00,,,-99.99,,2013-09-27 06:03:00,
2013-09-26 22:08:00,45.1,43.8,29.08,North,0,0.0,-999.0,95,0.00,,,-99.99,,2013-09-27 06:08:00,
2013-09-26 22:13:00,45.4,44.1,29.08,North,0,0.0,-999.0,95,0.00,,,-99.99,,2013-09-27 06:13:00,
2013-09-26 22:18:00,45.8,44.7,29.08,North,0,0.0,-999.0,95,0.00,,,-99.99,,2013-09-27 06:18:00,
2013-09-26 22:23:00,45.8,44.6,29.08,North,0,0.0,-999.0,95,0.00,,,-99.99,,2013-09-27 06:23:00,
2013-09-26 22:28:00,46.2,45.0,29.08,North,0,0.0,-999.0,95,0.00,,,-99.99,,2013-09-27 06:28:00,
2013-09-26 22:33:00,46.5,45.4,29.08,North,0,0.0,-999.0,95,0.00,,,-99.99,,2013-09-27 06:33:00,
2013-09-26 22:38:00,46.7,45.6,29.08,North,0,0.0,-999.0,95,0.00,,,-99.99,,2013-09-27 06:38:00,
2013-09-26 22:43:00,46.8,45.6,29.08,North,0,0.0,-999.0,95,0.00,,,-99.99,,2013-09-27 06:43:00,
2013-09-26 22:48:00,46.7,45.4,29.08,North,0,0.0,-999.0,95,0.00,,,-99.99,,2013-09-27 06:48:00,
2013-09-26 22:53:00,47.0,45.8,29.08,North,0,0.0,-999.0,95,0.00,,,-99.99,,2013-09-27 06:53:00,
2013-09-26 22:58:00,47.2,45.9,29.08,North,0,0.0,-999.0,95,0.00,,,-99.99,,2013-09-27 06:58:00,
2013-09-26 23:03:00,47.2,45.9,28.97,North,0,0.0,-999.0,95,0.00,,,-99.99,,2013-09-27 07:03:00,
2013-09-26 23:08:00,47.4,46.1,28.97,North,0,0.0,-999.0,95,0.00,,,-99.99,,2013-09-27 07:08:00,
2013-09-26 23:13:00,47.6,46.4,28.97,North,0,0.0,-999.0,95,0.00,,,-99.99,,2013-09-27 07:13:00,
2013-09-26 23:18:00,47.6,46.2,28.97,North,0,0.0,-999.0,94,0.00,,,-99.99,,2013-09-27 07:18:00,
2013-09-26 23:23:00,47.6,46.0,28.97,North,0,0.0,-999.0,94,0.00,,,-99.99,,2013-09-27 07:23:00,
2013-09-26 23:28:00,47.8,46.4,28.97,North,0,0.0,-999.0,94,0.00,,,-99.99,,2013-09-27 07:28:00,
2013-09-26 23:33:00,47.6,45.9,28.97,North,0,0.0,-999.0,93,0.00,,,-99.99,,2013-09-27 07:33:00,
2013-09-26 23:38:00,47.6,45.9,28.97,North,0,0.0,-999.0,93,0.00,,,-99.99,,2013-09-27 07:38:00,
2013-09-26 23:43:00,47.9,46.2,28.97,North,0,0.0,-999.0,94,0.00,,,-99.99,,2013-09-27 07:43:00,
2013-09-26 23:48:00,47.8,46.0,28.97,North,0,0.0,-999.0,93,0.00,,,-99.99,,2013-09-27 07:48:00,
2013-09-26 23:53:00,47.5,45.9,28.97,North,0,0.0,-999.0,94,0.00,,,-99.99,,2013-09-27 07:53:00,
2013-09-26 23:58:00,47.4,45.8,28.97,North,0,0.0,-999.0,94,0.00,,,-99.99,,2013-09-27 07:58:00,
2013-09-26 23:59:00,47.6,46.1,28.97,North,0,0.0,-999.0,94,0.00,,,-99.99,,2013-09-27 07:59:00,